Starlink 32233

operational
NORAD ID: 60434 Int'l Des: 2024-144 Owner: SPXS Country: US Constellation: starlink
LEOCIRCULAR

关于 Starlink 32233

正在加载描述...

实时位置

正在加载3D地球...

即将过境

高度历史

Altitude vs Time

uPlot chart will show altitude changes over time

两行轨道根数

1 60434U 24144K 25351.87437408 -.00000538 00000-0 -60265-5 0 9991
2 60434 53.1599 237.1022 0001487 83.7826 276.3344 15.30192028 76780
Epoch: Dec 17, 2025 • Age: 13 hours

当前状态

高度 479.6 km
速度 7.63 km/s
星下点 47.73°N, 55.15°E
发射日期 Aug 12, 2024
运行时间 1.3 years
类型 internet

技术详情

分类 Payload
质量 730.00 kg
干质量 700.00 kg
总质量 730.00 kg
长度 0.30 m
直径 4.10 m
跨度 29.00 m
形状 Box + pan
制造商 SPXS
平台类型 Starlink V2M
阶段状态 In Orbit
所有者/国家 SPXS/US

大型星座

Loading constellations...